Location: Newark
(48.1500°N, 2.9667°W)
Time: 05:39:22
(UTC+00:00)

Vanguard 3 - Visible Passes

Search period start: 29 January 2020 00:00
Search period end: 08 February 2020 00:00
Orbit: 507 x 3264 km, 33.4° (Epoch: 28 January)

Date Brightness Start Highest point End Pass type
(mag) Time Alt. Az. Time Alt. Az. Time Alt. Az.
29 Jan 10.6 17:30:12 10° SW 17:48:16 48° S 18:04:27 10° ESE visible
29 Jan 10.2 19:44:55 10° WSW 20:02:59 46° SSW 20:11:01 29° SE visible
29 Jan 10.5 22:02:13 10° W 22:15:35 28° SW 22:15:35 28° SW visible
30 Jan 10.5 18:28:30 10° WSW 18:46:59 50° S 19:01:18 14° ESE visible
30 Jan 10.2 20:44:24 10° W 21:01:01 38° SSW 21:05:52 32° S visible
30 Jan 11.0 23:04:14 10° W 23:10:27 15° WSW 23:10:27 15° WSW visible
31 Jan 10.7 17:12:54 10° WSW 17:30:41 49° S 17:47:38 10° ESE visible
31 Jan 10.4 19:27:24 10° W 19:45:31 45° SSW 19:56:13 22° SE visible
31 Jan 10.5 21:44:43 10° W 21:58:27 27° SW 22:00:47 26° SSW visible
01 Feb 10.6 18:11:11 10° WSW 18:29:26 50° S 18:45:43 10° ESE visible
01 Feb 10.4 20:26:53 10° W 20:43:35 37° SSW 20:51:11 25° SSE visible
01 Feb 11.0 22:47:17 10° WSW 22:55:11 15° SW 22:55:46 15° SW visible
02 Feb 10.6 19:10:03 10° W 19:27:58 45° SSW 19:41:38 14° SE visible
02 Feb 10.7 21:27:20 10° W 21:41:00 25° SW 21:46:13 21° SSW visible
03 Feb 10.7 17:54:01 10° WSW 18:11:49 49° S 18:28:47 10° ESE visible
03 Feb 10.7 20:09:31 10° W 20:26:03 35° SSW 20:36:45 18° SSE visible
03 Feb 11.1 22:30:40 10° WSW 22:37:46 14° SW 22:41:21 12° SW visible
04 Feb 10.8 18:52:49 10° W 19:10:23 43° SSW 19:26:11 10° SE visible
04 Feb 10.9 21:10:07 10° W 21:23:28 24° SW 21:31:57 15° S visible
05 Feb 10.8 17:37:01 10° WSW 17:54:12 48° S 18:11:41 10° ESE visible
05 Feb 10.9 19:52:18 10° W 20:08:27 33° SSW 20:22:34 10° SSE visible
05 Feb 11.2 22:14:37 10° WSW 22:20:17 12° SW 22:25:30 10° SW visible
06 Feb 10.9 18:35:46 10° W 18:52:44 42° SSW 19:09:02 10° SE visible
06 Feb 11.1 20:53:08 10° W 21:05:54 22° SW 21:17:09 10° S visible
07 Feb 10.9 17:20:10 10° WSW 17:36:36 47° SSW 17:54:25 10° SE visible
07 Feb 11.1 19:35:16 10° W 19:50:48 31° SW 20:05:12 10° SSE visible
07 Feb 11.4 22:00:12 10° WSW 22:02:44 10° SW 22:05:13 10° SW visible
